When you browse on this site, cookies collect data to enhance your experience and personalize the content and advertising you see.
Visit our Privacy Policy to learn more. By continuing to use the site, you agree to this use of cookies and data.

Hourly Weather Svyatoe

Today, 13 August, Thursday

Time Temperature Precipitation Wind Pressure Humidity
00:00 +8°C° 0 mm 2 mps 743 mmHg 94%
01:00 +8°C° 0 mm 2 mps 743 mmHg 93%
02:00 +8°C° 0 mm 2 mps 743 mmHg 95%
03:00 +8°C° 0 mm 2 mps 743 mmHg 94%
04:00 +9°C° 0 mm 2 mps 743 mmHg 92%
05:00 +10°C° 0 mm 1 mps 743 mmHg 91%
06:00 +10°C° 0.1 mm 2 mps 743 mmHg 88%
07:00 +10°C° 0.1 mm 2 mps 742 mmHg 86%
08:00 +12°C° 0 mm 2 mps 742 mmHg 83%
09:00 +13°C° 0.1 mm 2 mps 742 mmHg 79%
10:00 +13°C° 0.1 mm 2 mps 742 mmHg 75%
11:00 +14°C° 0.1 mm 2 mps 742 mmHg 71%
12:00 +13°C° 0 mm 3 mps 742 mmHg 67%
13:00 +14°C° 0 mm 3 mps 742 mmHg 62%
14:00 +15°C° 0 mm 2 mps 742 mmHg 61%
15:00 +15°C° 0 mm 2 mps 742 mmHg 62%
16:00 +15°C° 0 mm 2 mps 742 mmHg 62%
17:00 +15°C° 0 mm 2 mps 742 mmHg 63%
18:00 +13°C° 0 mm 2 mps 742 mmHg 70%
19:00 +12°C° 0 mm 2 mps 742 mmHg 77%
20:00 +10°C° 0 mm 1 mps 742 mmHg 83%
21:00 +10°C° 0 mm 1 mps 742 mmHg 87%
22:00 +9°C° 0 mm 1 mps 742 mmHg 90%
23:00 +9°C° 0 mm 1 mps 742 mmHg 93%

Tomorrow, 14 August, Friday

Time Temperature Precipitation Wind Pressure Humidity
00:00 +8°C° 0 mm 1 mps 742 mmHg 94%
01:00 +8°C° 0 mm 1 mps 743 mmHg 95%
02:00 +8°C° 0 mm 1 mps 743 mmHg 95%
03:00 +8°C° 0 mm 1 mps 743 mmHg 95%
04:00 +8°C° 0 mm 1 mps 743 mmHg 95%
05:00 +8°C° 0 mm 1 mps 743 mmHg 95%
06:00 +10°C° 0 mm 1 mps 743 mmHg 85%
07:00 +12°C° 0 mm 1 mps 743 mmHg 76%
08:00 +15°C° 0 mm 1 mps 744 mmHg 66%
09:00 +16°C° 0 mm 2 mps 743 mmHg 60%
10:00 +17°C° 0 mm 2 mps 743 mmHg 54%
11:00 +18°C° 0 mm 2 mps 743 mmHg 48%
12:00 +19°C° 0 mm 2 mps 743 mmHg 47%
13:00 +19°C° 0 mm 2 mps 743 mmHg 46%
14:00 +20°C° 0 mm 2 mps 743 mmHg 45%
15:00 +20°C° 0 mm 1 mps 743 mmHg 49%
16:00 +20°C° 0 mm 1 mps 743 mmHg 53%
17:00 +20°C° 0 mm 1 mps 743 mmHg 57%
18:00 +18°C° 0 mm 1 mps 743 mmHg 63%
19:00 +15°C° 0 mm 1 mps 743 mmHg 70%
20:00 +13°C° 0 mm 1 mps 743 mmHg 76%
21:00 +13°C° 0 mm 1 mps 743 mmHg 79%
22:00 +12°C° 0 mm 1 mps 743 mmHg 82%
23:00 +11°C° 0 mm 1 mps 743 mmHg 85%

Day after tomorrow, 15 August, Saturday

Time Temperature Precipitation Wind Pressure Humidity
00:00 +11°C° 0 mm 1 mps 743 mmHg 86%
01:00 +11°C° 0 mm 1 mps 743 mmHg 86%
02:00 +11°C° 0 mm 1 mps 743 mmHg 87%
03:00 +11°C° 0 mm 1 mps 743 mmHg 86%
04:00 +12°C° 0 mm 1 mps 743 mmHg 84%
05:00 +12°C° 0 mm 1 mps 743 mmHg 83%
06:00 +13°C° 0.1 mm 1 mps 743 mmHg 83%
07:00 +14°C° 0.1 mm 1 mps 743 mmHg 82%
08:00 +15°C° 0.1 mm 1 mps 743 mmHg 82%
09:00 +16°C° 0.2 mm 1 mps 742 mmHg 80%
10:00 +17°C° 0.2 mm 2 mps 742 mmHg 78%
11:00 +19°C° 0.2 mm 2 mps 742 mmHg 77%
12:00 +19°C° 0.5 mm 2 mps 742 mmHg 80%
13:00 +19°C° 0.5 mm 1 mps 742 mmHg 82%
14:00 +19°C° 0.5 mm 1 mps 742 mmHg 85%
15:00 +19°C° 0.2 mm 1 mps 741 mmHg 86%
16:00 +19°C° 0.2 mm 1 mps 741 mmHg 86%
17:00 +19°C° 0.2 mm 1 mps 741 mmHg 86%
18:00 +18°C° 0 mm 1 mps 741 mmHg 89%
19:00 +16°C° 0 mm 1 mps 741 mmHg 91%
20:00 +15°C° 0 mm 1 mps 741 mmHg 93%
21:00 +15°C° 0 mm 1 mps 740 mmHg 94%
22:00 +15°C° 0 mm 1 mps 740 mmHg 95%
23:00 +15°C° 0 mm 2 mps 740 mmHg 95%

16 August, Sunday

Time Temperature Precipitation Wind Pressure Humidity
00:00 +15°C° 0.1 mm 2 mps 740 mmHg 96%
01:00 +14°C° 0.1 mm 2 mps 740 mmHg 96%
02:00 +14°C° 0.1 mm 2 mps 740 mmHg 96%
03:00 +14°C° 0 mm 2 mps 740 mmHg 97%
04:00 +14°C° 0 mm 2 mps 740 mmHg 98%
05:00 +14°C° 0 mm 2 mps 739 mmHg 99%
06:00 +15°C° 0 mm 2 mps 739 mmHg 97%
07:00 +16°C° 0 mm 3 mps 739 mmHg 95%
08:00 +17°C° 0 mm 3 mps 739 mmHg 94%
09:00 +19°C° 0.1 mm 3 mps 739 mmHg 86%
10:00 +20°C° 0.1 mm 3 mps 740 mmHg 78%
11:00 +22°C° 0.1 mm 4 mps 740 mmHg 70%
12:00 +23°C° 0.4 mm 4 mps 740 mmHg 67%
13:00 +23°C° 0.4 mm 4 mps 739 mmHg 64%
14:00 +25°C° 0.4 mm 4 mps 739 mmHg 61%
15:00 +25°C° 0.1 mm 4 mps 739 mmHg 63%
16:00 +24°C° 0.1 mm 3 mps 739 mmHg 65%
17:00 +24°C° 0.1 mm 3 mps 739 mmHg 67%
18:00 +21°C° 0 mm 3 mps 739 mmHg 73%
19:00 +19°C° 0 mm 2 mps 739 mmHg 80%
20:00 +18°C° 0 mm 2 mps 739 mmHg 86%
21:00 +17°C° 0 mm 2 mps 739 mmHg 89%
22:00 +17°C° 0 mm 2 mps 739 mmHg 91%
23:00 +16°C° 0 mm 2 mps 739 mmHg 93%

17 August, Monday

Time Temperature Precipitation Wind Pressure Humidity
00:00 +16°C° 0 mm 2 mps 739 mmHg 94%
01:00 +16°C° 0 mm 2 mps 739 mmHg 94%
02:00 +16°C° 0 mm 2 mps 739 mmHg 95%
03:00 +15°C° 0.2 mm 2 mps 739 mmHg 96%
04:00 +15°C° 0.2 mm 2 mps 739 mmHg 97%
05:00 +15°C° 0.2 mm 2 mps 739 mmHg 97%
06:00 +16°C° 0.1 mm 2 mps 739 mmHg 95%
07:00 +17°C° 0.1 mm 2 mps 739 mmHg 92%
08:00 +18°C° 0.1 mm 2 mps 739 mmHg 89%
09:00 +19°C° 0.2 mm 3 mps 738 mmHg 85%
10:00 +20°C° 0.2 mm 3 mps 738 mmHg 80%
11:00 +21°C° 0.2 mm 3 mps 738 mmHg 76%
12:00 +21°C° 0.4 mm 3 mps 738 mmHg 74%
13:00 +22°C° 0.4 mm 3 mps 738 mmHg 72%
14:00 +22°C° 0.4 mm 3 mps 738 mmHg 70%
15:00 +22°C° 0 mm 3 mps 737 mmHg 67%
16:00 +22°C° 0 mm 3 mps 737 mmHg 64%
17:00 +23°C° 0 mm 2 mps 737 mmHg 61%
18:00 +20°C° 0 mm 2 mps 737 mmHg 66%
19:00 +17°C° 0 mm 2 mps 737 mmHg 71%
20:00 +15°C° 0 mm 1 mps 737 mmHg 75%
21:00 +14°C° 0 mm 1 mps 737 mmHg 75%
22:00 +14°C° 0 mm 1 mps 737 mmHg 74%
23:00 +12°C° 0 mm 0 mps 737 mmHg 74%

18 August, Tuesday

Time Temperature Precipitation Wind Pressure Humidity
00:00 +11°C° 0 mm 0 mps 737 mmHg 77%
01:00 +12°C° 0 mm 1 mps 737 mmHg 81%
02:00 +11°C° 0 mm 1 mps 737 mmHg 84%
03:00 +10°C° 0 mm 0 mps 737 mmHg 85%
04:00 +10°C° 0 mm 0 mps 737 mmHg 86%
05:00 +10°C° 0 mm 0 mps 737 mmHg 88%
06:00 +12°C° 0 mm 0 mps 737 mmHg 79%
07:00 +14°C° 0 mm 0 mps 737 mmHg 70%
08:00 +16°C° 0 mm 0 mps 737 mmHg 62%
09:00 +20°C° 0 mm 1 mps 737 mmHg 56%
10:00 +21°C° 0 mm 1 mps 737 mmHg 49%
11:00 +23°C° 0 mm 1 mps 737 mmHg 43%
12:00 +23°C° 0 mm 1 mps 737 mmHg 43%
13:00 +23°C° 0 mm 2 mps 737 mmHg 43%
14:00 +23°C° 0 mm 2 mps 736 mmHg 44%
15:00 +23°C° 0 mm 2 mps 736 mmHg 48%
16:00 +23°C° 0 mm 2 mps 736 mmHg 53%
17:00 +22°C° 0 mm 1 mps 736 mmHg 57%
18:00 +20°C° 0 mm 1 mps 736 mmHg 65%
19:00 +18°C° 0 mm 1 mps 736 mmHg 72%
20:00 +15°C° 0 mm 1 mps 736 mmHg 80%
21:00 +15°C° 0 mm 1 mps 736 mmHg 82%
22:00 +15°C° 0 mm 1 mps 736 mmHg 84%
23:00 +14°C° 0 mm 1 mps 737 mmHg 86%
Show more